sat.trackr.live / text

‹ back to catalog

STARLINK-36505

NORAD 67463 · 2026-008U

PAYLOAD ACTIVE UNKNOWN

§ Identity

Operator
Country
US
Launch date
2026-01-14
Launch site
AFETR
Launch vehicle
Mass (kg)
RCS (m²)

Purposes: comms

External: N2YO · Heavens-Above · Gunter

§ Orbital elements

Epoch: 2026-05-24T23:56:39.018048Z

Period
94.27 min
Inclination
42.9990°
Eccentricity
0.0000904
Mean motion
15.27573905 rev/d
Perigee alt
482.4 km
Apogee alt
483.7 km
Semi-major
6,861.2 km
B*
5.0117e-4
RAAN
134.1752°
Arg perigee
271.2782°
Mean anomaly
88.7966°
Rev number
2,124

§ Raw data

STARLINK-365051 67463U 26008U   26144.99767382  .00013552  00000+0  50117-3 0  99922 67463  42.9990 134.1752 0000904 271.2782  88.7966 15.27573905 21243

JSON: /api/v1/satellites/67463 · /tle

For live sub-satellite position, see the globe view (requires WebGL).

§ Visibility from observer

Set your observer location to see the next 7 days of passes ≥ 10°. The values pass through the URL so the page stays shareable.

No JS? Fill the form by hand. The geolocation button needs JavaScript.